This is the latest recevied weather packets stored in our database for station/object KO6LQJ. If no packets are shown the sender has not sent any weather packets the latest 10 day(s).
| Time | Temp. | Humidity | Pressure | Rain* | Wind** | Luminosity | Snow |
|---|---|---|---|---|---|---|---|
| 1777687214 | 22.78° C | 56% | 1013.5 hPa | 0 mm | - | 19 W/m² | - |
| 1777686912 | 22.78° C | 55% | 1013.4 hPa | 0 mm | - | 24 W/m² | - |
| 1777686608 | 22.78° C | 55% | 1013.2 hPa | 0 mm | - | 29 W/m² | - |
| 1777686305 | 22.78° C | 56% | 1013.3 hPa | 0 mm | - | 42 W/m² | - |
| 1777686002 | 22.78° C | 56% | 1013.3 hPa | 0 mm | - | 46 W/m² | - |
| 1777685697 | 22.78° C | 56% | 1013.3 hPa | 0 mm | - | 52 W/m² | - |
| 1777685394 | 23.33° C | 54% | 1013.2 hPa | 0 mm | - | 62 W/m² | - |
| 1777685092 | 23.89° C | 54% | 1013.2 hPa | 0 mm | - | 60 W/m² | - |
| 1777684789 | 23.89° C | 54% | 1013.4 hPa | 0 mm | - | 87 W/m² | - |
| 1777684485 | 23.89° C | 54% | 1013.2 hPa | 0 mm | - | 44 W/m² | - |
| 1777684182 | 23.89° C | 53% | 1013.2 hPa | 0 mm | - | 109 W/m² | - |
| 1777683879 | 24.44° C | 52% | 1013.3 hPa | 0 mm | - | 85 W/m² | - |
| 1777683575 | 25° C | 52% | 1013.4 hPa | 0 mm | - | 40 W/m² | - |
| 1777683273 | 25° C | 50% | 1013.3 hPa | 0 mm | - | 44 W/m² | - |
| 1777682971 | 25° C | 51% | 1013.3 hPa | 0 mm | - | 90 W/m² | - |
| 1777682667 | 24.44° C | 53% | 1013.2 hPa | 0 mm | - | 46 W/m² | - |
| 1777682364 | 24.44° C | 52% | 1013.1 hPa | 0 mm | - | 168 W/m² | - |
| 1777682061 | 24.44° C | 52% | 1013.2 hPa | 0 mm | - | 91 W/m² | - |
| 1777681757 | 24.44° C | 52% | 1013.2 hPa | 0 mm | - | 238 W/m² | - |
| 1777681455 | 25° C | 51% | 1013.3 hPa | 0 mm | - | 84 W/m² | - |
| 1777681152 | 25° C | 51% | 1013.2 hPa | 0 mm | - | 140 W/m² | - |
| 1777680850 | 25.56° C | 50% | 1013.4 hPa | 0 mm | - | 245 W/m² | - |
| 1777680547 | 25.56° C | 50% | 1013.2 hPa | 0 mm | - | 303 W/m² | - |
| 1777680246 | 26.11° C | 49% | 1013.3 hPa | 0 mm | - | 334 W/m² | - |
| 1777679941 | 25.56° C | 49% | 1013.3 hPa | 0 mm | - | 330 W/m² | - |
* Rain latest hour (hover to see other rain measurements)
** Current wind speed in m/s (hover to see current wind gust speed)